Date String (YYYY-MM-DD hh:mm:ss) UTC,Instrument flags,Ambient pressure (hPa),Sample flow (lpm),Bypass flow (lpm),Sample temperature (°C),Ambient temperature (°C),ASC tube jacket temperature (°C),LED temperature (°C),Box temperature (°C),Sample RH (%),Mass concentration (μg/m³),Mass concentration (μg/m³)
DateTimeUTC,F1_M11,P_M11,Q1_M11,Q2_M11,T1_M11,T2_M11,T3_M11,T4_M11,T5_M11,U1_M11,X2_M11,X0_M11
2021-08-11 22:00:00,FlowAlarm;OPCInstrumentWarning,0827.3,5.01,0.00,28.8,25.7,00.0,38.0,30.4,15.5,0025.84,0038.53
2021-08-11 22:01:00,FlowAlarm;OPCInstrumentWarning,0827.2,5.01,0.00,28.8,26.1,00.0,38.0,30.5,15.8,0025.79,0039.14
2021-08-11 22:02:00,FlowAlarm;OPCInstrumentWarning,0827.2,4.99,0.00,28.8,26.5,00.0,38.0,30.6,15.9,0025.71,0039.68
2021-08-11 22:03:00,FlowAlarm;OPCInstrumentWarning,0827.2,4.99,0.00,28.8,26.9,00.0,37.9,30.7,15.7,0025.61,0038.80
2021-08-11 22:04:00,FlowAlarm;OPCInstrumentWarning,0827.2,5.00,0.00,28.8,27.2,00.0,38.0,30.8,16.0,0025.50,0037.84
2021-08-11 22:05:00,FlowAlarm;OPCInstrumentWarning,0827.2,4.99,0.00,28.9,27.6,00.0,38.0,30.9,15.8,0025.42,0037.84
2021-08-11 22:06:00,FlowAlarm;OPCInstrumentWarning,0827.1,5.00,0.00,28.9,27.1,00.0,38.0,30.8,15.7,0025.38,0037.98
2021-08-11 22:07:00,FlowAlarm;OPCInstrumentWarning,0827.2,5.01,0.00,28.8,25.7,00.0,37.9,30.4,15.4,0025.29,0038.69
2021-08-11 22:08:00,FlowAlarm;OPCInstrumentWarning,0827.1,4.99,0.00,28.7,25.8,00.0,37.9,30.3,15.2,0025.26,0039.27
2021-08-11 22:09:00,FlowAlarm;OPCInstrumentWarning,0827.2,5.02,0.00,28.7,26.2,00.0,37.9,30.5,15.2,0025.23,0040.29
2021-08-11 22:10:00,FlowAlarm;OPCInstrumentWarning,0827.0,4.98,0.00,28.7,26.6,00.0,37.9,30.5,15.2,0025.17,0040.38
2021-08-11 22:11:00,FlowAlarm;OPCInstrumentWarning,0827.2,5.00,0.00,28.7,27.0,00.0,37.9,30.7,15.3,0025.11,0041.47
2021-08-11 22:12:00,FlowAlarm;OPCInstrumentWarning,0827.0,5.01,0.00,28.8,27.4,00.0,37.9,30.8,15.1,0025.02,0041.98
2021-08-11 22:13:00,FlowAlarm;OPCInstrumentWarning,0827.0,4.98,0.00,28.8,27.8,00.0,37.9,30.9,15.2,0025.04,0041.80
2021-08-11 22:14:00,FlowAlarm;OPCInstrumentWarning,0827.0,5.02,0.00,28.9,28.0,00.0,37.9,31.0,15.6,0025.01,0042.98
2021-08-11 22:15:00,FlowAlarm;OPCInstrumentWarning,0827.0,4.98,0.00,29.0,27.5,00.0,38.0,30.9,15.8,0024.96,0043.64
2021-08-11 22:16:00,FlowAlarm;OPCInstrumentWarning,0827.1,5.01,0.00,28.9,26.0,00.0,37.9,30.6,15.0,0024.91,0044.85
2021-08-11 22:17:00,FlowAlarm;OPCInstrumentWarning,0827.0,5.01,0.00,28.8,25.9,00.0,37.9,30.5,15.4,0024.88,0045.57
2021-08-11 22:18:00,FlowAlarm;OPCInstrumentWarning,0826.9,4.99,0.00,28.8,26.3,00.0,37.9,30.6,15.8,0024.89,0044.88
2021-08-11 22:19:00,FlowAlarm;OPCInstrumentWarning,0827.1,5.00,0.00,28.7,26.7,00.0,37.9,30.6,15.5,0024.88,0044.07
2021-08-11 22:20:00,FlowAlarm;OPCInstrumentWarning,0826.9,5.00,0.00,28.8,27.1,00.0,37.9,30.7,15.1,0024.89,0042.91
2021-08-11 22:21:00,FlowAlarm;OPCInstrumentWarning,0827.1,4.99,0.00,28.8,27.5,00.0,37.9,30.9,15.2,0024.84,0041.72
2021-08-11 22:22:00,FlowAlarm;OPCInstrumentWarning,0827.1,5.01,0.00,28.9,27.8,00.0,37.9,31.0,15.2,0024.84,0040.90
2021-08-11 22:23:00,FlowAlarm;OPCInstrumentWarning,0826.9,4.99,0.00,28.9,27.3,00.0,38.0,30.8,15.7,0024.87,0039.58
2021-08-11 22:24:00,FlowAlarm;OPCInstrumentWarning,0827.0,5.01,0.00,28.8,25.9,00.0,37.9,30.5,15.4,0024.85,0038.87
2021-08-11 22:25:00,FlowAlarm;OPCInstrumentWarning,0826.8,4.99,0.00,28.7,25.8,00.0,37.9,30.4,15.7,0024.95,0038.04
2021-08-11 22:26:00,FlowAlarm;OPCInstrumentWarning,0826.9,5.00,0.00,28.7,26.3,00.0,37.9,30.5,15.1,0024.96,0038.27
2021-08-11 22:27:00,FlowAlarm;OPCInstrumentWarning,0827.0,5.01,0.00,28.7,26.7,00.0,37.9,30.6,15.0,0024.96,0036.79
2021-08-11 22:28:00,FlowAlarm;OPCInstrumentWarning,0827.0,5.01,0.00,28.7,27.1,00.0,37.9,30.7,16.0,0024.94,0035.79
2021-08-11 22:29:00,FlowAlarm;OPCInstrumentWarning,0826.8,4.99,0.00,28.8,27.5,00.0,37.9,30.9,14.9,0024.89,0035.97
2021-08-11 22:30:00,FlowAlarm;OPCInstrumentWarning,0827.1,5.01,0.00,28.9,27.8,00.0,37.9,31.0,15.0,0024.84,0035.39
2021-08-11 22:31:00,FlowAlarm;OPCInstrumentWarning,0826.9,4.99,0.00,29.0,28.1,00.0,38.0,31.1,15.7,0024.83,0035.44
2021-08-11 22:32:00,FlowAlarm;OPCInstrumentWarning,0826.9,5.00,0.00,29.0,27.7,00.0,38.0,30.9,16.0,0024.80,0036.20
2021-08-11 22:33:00,FlowAlarm;OPCInstrumentWarning,0827.4,5.01,0.00,28.9,26.2,00.0,38.0,30.6,16.2,0024.81,0036.81
2021-08-11 22:34:00,FlowAlarm;OPCInstrumentWarning,0827.0,4.99,0.00,28.8,26.0,00.0,38.0,30.5,15.4,0024.79,0037.18
2021-08-11 22:35:00,FlowAlarm;OPCInstrumentWarning,0826.8,5.00,0.00,28.8,26.4,00.0,38.0,30.6,15.5,0024.77,0037.60
2021-08-11 22:36:00,FlowAlarm;OPCInstrumentWarning,0826.9,4.99,0.00,28.8,26.8,00.0,38.0,30.7,14.7,0024.70,0038.32
2021-08-11 22:37:00,FlowAlarm;OPCInstrumentWarning,0826.8,5.00,0.00,28.8,27.2,00.0,38.0,30.8,15.6,0024.76,0037.40
2021-08-11 22:38:00,FlowAlarm;OPCInstrumentWarning,0826.8,5.01,0.00,28.9,27.6,00.0,38.0,30.9,15.3,0024.73,0037.30
2021-08-11 22:39:00,FlowAlarm;OPCInstrumentWarning,0826.8,5.00,0.00,29.0,27.9,00.0,38.0,31.0,14.3,0024.72,0037.49
2021-08-11 22:40:00,FlowAlarm;OPCInstrumentWarning,0826.7,5.01,0.00,29.0,27.6,00.0,38.0,30.9,15.4,0024.77,0037.79
2021-08-11 22:41:00,FlowAlarm;OPCInstrumentWarning,0826.8,5.00,0.00,28.9,26.1,00.0,38.0,30.6,15.1,0024.76,0038.61
2021-08-11 22:42:00,FlowAlarm;OPCInstrumentWarning,0826.8,4.99,0.00,28.8,25.9,00.0,38.0,30.5,14.6,0024.76,0038.63
2021-08-11 22:43:00,FlowAlarm;OPCInstrumentWarning,0827.0,5.02,0.00,28.8,26.3,00.0,38.0,30.6,15.2,0024.88,0038.39
2021-08-11 22:44:00,FlowAlarm;OPCInstrumentWarning,0826.7,5.00,0.00,28.8,26.7,00.0,38.0,30.6,15.6,0024.90,0037.64
2021-08-11 22:45:00,FlowAlarm;OPCInstrumentWarning,0826.7,4.99,0.00,28.8,27.1,00.0,38.0,30.7,15.4,0024.96,0038.22
2021-08-11 22:46:00,FlowAlarm;OPCInstrumentWarning,0826.7,5.00,0.00,28.9,27.5,00.0,38.0,30.9,15.9,0025.03,0039.09
2021-08-11 22:47:00,FlowAlarm;OPCInstrumentWarning,0826.7,5.00,0.00,28.9,27.8,00.0,38.0,31.0,14.9,0025.07,0038.20
2021-08-11 22:48:00,FlowAlarm;OPCInstrumentWarning,0826.7,5.00,0.00,29.0,27.4,00.0,38.0,30.9,14.8,0025.11,0038.24
2021-08-11 22:49:00,FlowAlarm;OPCInstrumentWarning,0826.8,5.01,0.00,28.9,26.1,00.0,38.0,30.5,14.6,0025.23,0038.62
2021-08-11 22:50:00,FlowAlarm;OPCInstrumentWarning,0826.7,5.00,0.00,28.8,25.9,00.0,37.9,30.4,15.3,0025.35,0039.25
2021-08-11 22:51:00,FlowAlarm;OPCInstrumentWarning,0826.7,5.00,0.00,28.7,26.3,00.0,37.9,30.5,15.3,0025.40,0039.52
2021-08-11 22:52:00,FlowAlarm;OPCInstrumentWarning,0826.7,5.00,0.00,28.7,26.7,00.0,37.9,30.6,15.0,0025.40,0039.78
2021-08-11 22:53:00,FlowAlarm;OPCInstrumentWarning,0826.7,4.99,0.00,28.8,27.1,00.0,37.9,30.7,14.8,0025.41,0039.42
2021-08-11 22:54:00,FlowAlarm;OPCInstrumentWarning,0826.8,5.01,0.00,28.8,27.5,00.0,37.9,30.9,15.0,0025.38,0039.80
2021-08-11 22:55:00,FlowAlarm;OPCInstrumentWarning,0826.7,4.98,0.00,28.9,27.9,00.0,38.0,31.0,16.0,0025.47,0040.65
2021-08-11 22:56:00,FlowAlarm;OPCInstrumentWarning,0826.8,5.02,0.00,29.0,28.0,00.0,38.0,31.1,16.3,0025.51,0040.17
2021-08-11 22:57:00,FlowAlarm;OPCInstrumentWarning,0826.7,4.97,0.00,29.0,26.8,00.0,38.0,30.7,15.1,0025.48,0039.41
2021-08-11 22:58:00,FlowAlarm;OPCInstrumentWarning,0826.7,5.01,0.00,28.8,25.8,00.0,38.0,30.4,14.8,0025.51,0039.78
2021-08-11 22:59:00,FlowAlarm;OPCInstrumentWarning,0826.7,4.99,0.00,28.8,26.1,00.0,38.0,30.5,14.5,0025.46,0040.88
